Regional Weather Roundup
Issued by NWS Huntsville, AL

Home | Current Version | Previous Version | Text Only | Print | Product List | Glossary On
Versions: 1 2 3 4 5 6 7 8 9 10 11 12 13 14 15 16 17 18 19 20 21 22 23 24 25 26 27 28 29 30 31 32 33 34 35 36 37 38 39 40 41 42 43 44 45 46 47 48
000
ASUS44 KHUN 270810
RWRHUN

WEATHER ROUNDUP FOR THE TENNESSEE VALLEY
NATIONAL WEATHER SERVICE HUNTSVILLE AL
300 AM CDT FRI MAR 27 2015

ALZ001>004-270900-
NORTHWEST ALABAMA

CITY           SKY/WX    TMP DP  RH WIND       PRES   REMARKS
COURTLAND HCN    N/A     43  32  66 N8          N/A
BANKHEAD NF      N/A     42  39  89 NW2         N/A
RUSSELLVILLE     N/A     43 N/A N/A MISG        N/A
SHOALS AIRPORT CLOUDY    42  33  70 N9        29.98F
SHOALS TVA RES   N/A     41 N/A N/A MISG        N/A
$$

ALZ005>007-016-270900-
NORTH CENTRAL ALABAMA

CITY           SKY/WX    TMP DP  RH WIND       PRES   REMARKS
DECATUR AP     CLOUDY    43  39  86 N16       29.94F
HUNTSVILLE AP  CLOUDY    45  39  79 N15       29.93S
HUN NWS/UAH      N/A     43  37  80 VRB12       N/A
MERIDIANVILLE  CLOUDY    41  36  81 N14       29.93R
REDSTONE ARSN  CLOUDY    43  39  86 N16       29.92R
VINEMONT AP    CLOUDY    42  39  87 N8G16     29.92F
$$

ALZ008>010-270900-
NORTHEAST ALABAMA

CITY           SKY/WX    TMP DP  RH WIND       PRES   REMARKS
ALBERTVILLE    LGT RAIN  43  43 100 N12       29.85F
FORT PAYNE     LGT RAIN  45  39  81 N10       29.85R
SCOTTSBORO AP  CLOUDY    45  39  81 N13G20    29.88F
SCOTTSBORO HCN   N/A     45 N/A N/A MISG        N/A
VALLEY HEAD      N/A     45 N/A N/A MISG        N/A
$$

TNZ076-096-097-270900-
SOUTHEASTERN MIDDLE TENNESSEE

CITY           SKY/WX    TMP DP  RH WIND       PRES   REMARKS
TULLAHOMA      CLOUDY    37  37 100 N13       29.91F WCI  29
WINCHESTER     CLOUDY    41  39  93 N13       29.90F
$$

...SURROUNDING SITES...

CITY           SKY/WX    TMP DP  RH WIND       PRES   REMARKS
ATLANTA        CLOUDY    52  47  83 NW14      29.74F
ANNISTON       CLOUDY    50  46  86 N7        29.83S
BIRMINGHAM     LGT RAIN  46  44  93 N14       29.90S
CHATTANOOGA    LGT RAIN  46  40  79 N13       29.87R
CORINTH        FAIR      39  36  87 CALM      29.99F
DALTON         RAIN      45  45 100 NW15      29.81S
GADSDEN        CLOUDY   N/A N/A N/A N12       29.82F
GOLDEN TRNGL   CLOUDY    46  39  76 N13       29.97F
HALEYVILLE     CLOUDY    41  38  89 N7        29.96R
JACKSON TN     CLEAR     30  27  88 S3        30.00F
LEWISBURG      CLOUDY    39  35  85 N5        29.95F
MEMPHIS        CLEAR     38  33  82 CALM      30.02F
MURFREESBORO   CLOUDY    41  38  89 N8        29.96F
NASHVILLE      MOCLDY    38  35  89 N6        29.98S WCI  33
OXFORD MS      FAIR      36  32  87 NE5       30.02F WCI  32
ROME           CLOUDY    47  44  90 NW10      29.81F
SAVANNAH       CLEAR     36  36 100 N3        29.99F
TUPELO         PTCLDY    41  35  79 N8        30.00F
TUSCALOOSA     CLOUDY    47  43  86 N12G20    29.94R
$$

...GULF COAST WEATHER...

CITY           SKY/WX    TMP DP  RH WIND       PRES   REMARKS
GULFPORT       CLOUDY    57  52  83 NW17G24   29.89S
PASCAGOULA     CLOUDY    58  55  90 N13G21    29.88S
MOBILE         CLOUDY    57  55  93 NW12      29.88S
GULF SHORES    CLOUDY    64  62  91 W12G20    29.84R
PENSACOLA      CLOUDY    66  63  88 W6        29.82S
DESTIN         MOCLDY    67  63  87 VRB3      29.80F
PANAMA CITY    DRIZZLE   68  65  90 W12       29.79F
APPALACHICOLA  MOCLDY    67  63  87 CALM      29.81F
$$



USA.gov is the U.S. government's official web portal to all federal, state and local government web resources and services.